Hallock, MN

5:32 PM CST on February 22, 2018 (GMT -0600)
Hallock Municipal

Weather History for KHCO - August, 2013

Change the Weather History Date:

Wednesday, August 7, 2013

  Actual Average Record
Temperature  
Mean Temperature 56 °F -  
Max Temperature 66 °F 82 °F 102 °F (1988)
Min Temperature 46 °F 57 °F 44 °F (1967)
Degree Days  
Heating Degree Days 9    
Growing Degree Days 6 (Base 50)    
Moisture  
Dew Point 51 °F    
Average Humidity 82    
Maximum Humidity 100    
Minimum Humidity 56    
Precipitation  
Precipitation 0.00 in - - ()
Sea Level Pressure  
Sea Level Pressure 30.00 in    
Wind  
Wind Speed 4 mph (North)    
Max Wind Speed 8 mph    
Max Gust Speed -    
Visibility 10 miles    
Events      
Averages and records for this station are not official NWS values.
T = Trace of Precipitation, MM = Missing Value Source: NWS Daily Summary

Daily Weather History Graph

Daily Weather History Graph

Search for Another Location

Airport or City:

Trip Planner

Search our weather history database for the weather conditions in past years. The results will help you decide how hot, cold, wet, or windy it might be!

Date:

Astronomy

Aug. 07, 2013 Rise Set
Actual Time 6:09 AM CDT 8:56 PM CDT
Civil Twilight 5:33 AM CDT 9:31 PM CDT
Nautical Twilight 4:47 AM CDT 10:17 PM CDT
Astronomical Twilight 3:52 AM CDT 11:12 PM CDT
Moon 7:09 AM CDT (8/7) 8:51 PM CDT (8/7)
Length of Visible Light 15h 58m
Length of Day
14h 46m
New Moon, 1% of the Moon is Illuminated
Aug 7
New Moon
Aug 14
First Quarter
Aug 20
Full
Aug 28
Last Quarter
Sep 5
New

Hourly Weather History & Observations

Time (CDT) Temp. Dew Point Humidity Pressure Visibility Wind Dir Wind Speed Gust Speed Precip Events Conditions
12:13 AM 53.6 °F 48.2 °F 82% 29.91 in 10.0 mi NNW 6.9 mph - N/A   Clear
12:33 AM 51.8 °F 48.2 °F 88% 29.91 in 10.0 mi NNW 4.6 mph - N/A   Clear
12:53 AM 53.6 °F 50.0 °F 88% 29.92 in 10.0 mi NNW 3.5 mph - N/A   Clear
1:13 AM 51.8 °F 48.2 °F 88% 29.92 in 10.0 mi Calm Calm - N/A   Clear
1:33 AM 51.8 °F 50.0 °F 94% 29.93 in 10.0 mi NNW 4.6 mph - N/A   Clear
1:54 AM 51.8 °F 50.0 °F 94% 29.93 in 10.0 mi NNW 3.5 mph - N/A   Clear
2:13 AM 51.8 °F 48.2 °F 88% 29.93 in 10.0 mi NNW 5.8 mph - N/A   Clear
2:33 AM 50.0 °F 48.2 °F 94% 29.94 in 10.0 mi North 3.5 mph - N/A   Clear
2:53 AM 48.2 °F 46.4 °F 93% 29.94 in 10.0 mi Calm Calm - N/A   Clear
3:13 AM 48.2 °F 48.2 °F 100% 29.95 in 10.0 mi NW 4.6 mph - N/A   Clear
3:28 AM 48.2 °F 48.2 °F 100% 29.95 in - NW 5.8 mph - N/A   Clear
3:53 AM 46.4 °F 46.4 °F 100% 29.95 in 10.0 mi Calm Calm - N/A   Scattered Clouds
4:13 AM 48.2 °F 46.4 °F 93% 29.94 in 10.0 mi Calm Calm - N/A   Scattered Clouds
4:34 AM 48.2 °F 46.4 °F 93% 29.96 in 10.0 mi Calm Calm - N/A   Scattered Clouds
4:53 AM 48.2 °F 48.2 °F 100% 29.97 in 10.0 mi NNW 4.6 mph - N/A   Mostly Cloudy
5:13 AM 51.8 °F 50.0 °F 94% 29.97 in 10.0 mi North 4.6 mph - N/A   Overcast
5:34 AM 51.8 °F 50.0 °F 94% 29.97 in 10.0 mi NNW 4.6 mph - N/A   Overcast
5:53 AM 51.8 °F 50.0 °F 94% 29.97 in 10.0 mi NNW 4.6 mph - N/A   Overcast
6:13 AM 51.8 °F 50.0 °F 94% 29.98 in 10.0 mi North 3.5 mph - N/A   Overcast
6:33 AM 51.8 °F 50.0 °F 94% 29.98 in 10.0 mi Calm Calm - N/A   Overcast
6:53 AM 51.8 °F 50.0 °F 94% 29.99 in 10.0 mi Calm Calm - N/A   Overcast
7:13 AM 51.8 °F 50.0 °F 94% 29.99 in 10.0 mi North 3.5 mph - N/A   Overcast
7:33 AM 53.6 °F 51.8 °F 94% 29.99 in 10.0 mi NNW 3.5 mph - N/A   Light Drizzle
7:53 AM 53.6 °F 51.8 °F 94% 30.00 in 10.0 mi NW 3.5 mph - N/A   Overcast
8:13 AM 53.6 °F 51.8 °F 94% 30.01 in 10.0 mi NW 3.5 mph - N/A   Overcast
8:33 AM 53.6 °F 51.8 °F 94% 30.02 in 10.0 mi NW 4.6 mph - N/A   Overcast
8:53 AM 53.6 °F 51.8 °F 94% 30.00 in 10.0 mi Calm Calm - N/A   Mostly Cloudy
9:13 AM 55.4 °F 50.0 °F 82% 30.01 in 10.0 mi North 5.8 mph - N/A   Mostly Cloudy
9:33 AM 55.4 °F 50.0 °F 82% 30.01 in 10.0 mi North 8.1 mph - N/A   Overcast
9:53 AM 55.4 °F 51.8 °F 88% 30.00 in 10.0 mi NNE 5.8 mph - N/A   Overcast
10:13 AM 57.2 °F 51.8 °F 82% 30.02 in 10.0 mi NNW 4.6 mph - N/A   Overcast
10:33 AM 57.2 °F 51.8 °F 82% 30.02 in 10.0 mi NNW 3.5 mph - N/A   Mostly Cloudy
10:53 AM 59.0 °F 51.8 °F 77% 30.02 in 10.0 mi Calm Calm - N/A   Scattered Clouds
11:13 AM 59.0 °F 51.8 °F 77% 30.02 in 10.0 mi Calm Calm - N/A   Mostly Cloudy
11:33 AM 60.8 °F 51.8 °F 72% 30.02 in 10.0 mi NNE 5.8 mph - N/A   Overcast
11:53 AM 60.8 °F 50.0 °F 68% 30.02 in 10.0 mi NNE 4.6 mph - N/A   Mostly Cloudy
12:13 PM 60.8 °F 50.0 °F 68% 30.02 in 10.0 mi Calm Calm - N/A   Mostly Cloudy
12:33 PM 62.6 °F 50.0 °F 63% 30.02 in 10.0 mi Calm Calm - N/A   Mostly Cloudy
12:53 PM 62.6 °F 50.0 °F 63% 30.02 in 10.0 mi NNW 5.8 mph - N/A   Mostly Cloudy
1:13 PM 62.6 °F 48.2 °F 59% 30.02 in 10.0 mi Calm Calm - N/A   Mostly Cloudy
1:33 PM 64.4 °F 50.0 °F 59% 30.02 in 10.0 mi NNW 4.6 mph - N/A   Mostly Cloudy
1:54 PM 62.6 °F 50.0 °F 63% 30.02 in 10.0 mi North 3.5 mph - N/A   Mostly Cloudy
2:13 PM 64.4 °F 50.0 °F 59% 30.02 in 10.0 mi North 5.8 mph - N/A   Mostly Cloudy
2:33 PM 64.4 °F 51.8 °F 64% 30.01 in 10.0 mi North 3.5 mph - N/A   Mostly Cloudy
2:53 PM 62.6 °F 50.0 °F 63% 30.01 in 10.0 mi Calm Calm - N/A   Mostly Cloudy
3:13 PM 64.4 °F 51.8 °F 64% 30.01 in 10.0 mi WNW 4.6 mph - N/A   Overcast
3:33 PM 64.4 °F 51.8 °F 64% 30.01 in 10.0 mi NNW 6.9 mph - N/A   Mostly Cloudy
3:53 PM 66.2 °F 50.0 °F 56% 30.01 in 10.0 mi North 3.5 mph - N/A   Scattered Clouds
4:13 PM 64.4 °F 51.8 °F 64% 30.01 in 10.0 mi Calm Calm - N/A   Scattered Clouds
4:33 PM 66.2 °F 51.8 °F 60% 30.01 in 10.0 mi North 3.5 mph - N/A   Mostly Cloudy
4:53 PM 64.4 °F 51.8 °F 64% 30.01 in 10.0 mi NNW 3.5 mph - N/A   Mostly Cloudy
5:13 PM 64.4 °F 51.8 °F 64% 30.00 in 10.0 mi Calm Calm - N/A   Mostly Cloudy
5:33 PM 64.4 °F 53.6 °F 68% 30.01 in 10.0 mi NNE 5.8 mph - N/A   Mostly Cloudy
5:53 PM 64.4 °F 51.8 °F 64% 30.01 in 10.0 mi North 4.6 mph - N/A   Mostly Cloudy
6:13 PM 64.4 °F 53.6 °F 68% 30.01 in 10.0 mi North 3.5 mph - N/A   Scattered Clouds
6:33 PM 62.6 °F 53.6 °F 72% 30.01 in 10.0 mi North 4.6 mph - N/A   Scattered Clouds
6:53 PM 62.6 °F 53.6 °F 72% 30.01 in 10.0 mi NNE 3.5 mph - N/A   Mostly Cloudy
7:13 PM 62.6 °F 53.6 °F 72% 30.01 in 10.0 mi NNE 4.6 mph - N/A   Overcast
7:33 PM 62.6 °F 53.6 °F 72% 30.01 in 10.0 mi North 4.6 mph - N/A   Overcast
7:53 PM 62.6 °F 53.6 °F 72% 30.01 in 10.0 mi NNE 8.1 mph - N/A   Mostly Cloudy
8:13 PM 60.8 °F 53.6 °F 77% 30.01 in 10.0 mi NNE 5.8 mph - N/A   Mostly Cloudy
8:33 PM 59.0 °F 53.6 °F 82% 30.01 in 10.0 mi NE 4.6 mph - N/A   Mostly Cloudy
8:53 PM 59.0 °F 53.6 °F 82% 30.01 in 10.0 mi NE 4.6 mph - N/A   Scattered Clouds
9:13 PM 57.2 °F 53.6 °F 88% 30.01 in 10.0 mi ENE 3.5 mph - N/A   Mostly Cloudy
9:33 PM 55.4 °F 53.6 °F 94% 30.02 in 10.0 mi Calm Calm - N/A   Scattered Clouds
9:53 PM 55.4 °F 53.6 °F 94% 30.02 in 10.0 mi Calm Calm - N/A   Clear
10:13 PM 53.6 °F 51.8 °F 94% 30.03 in 10.0 mi Calm Calm - N/A   Clear
10:33 PM 51.8 °F 51.8 °F 100% 30.03 in 10.0 mi Calm Calm - N/A   Clear
10:53 PM 53.6 °F 51.8 °F 94% 30.03 in 10.0 mi Calm Calm - N/A   Clear
11:13 PM 50.0 °F 48.2 °F 94% 30.04 in 10.0 mi Calm Calm - N/A   Clear
11:33 PM 50.0 °F 50.0 °F 100% 30.04 in 10.0 mi Calm Calm - N/A   Clear
11:53 PM 48.2 °F 48.2 °F 100% 30.04 in 10.0 mi Calm Calm - N/A   Clear